sat.trackr.live / text

‹ back to catalog

ONEWEB-0615

NORAD 54676 · 2022-166AL

PAYLOAD ACTIVE UNKNOWN

§ Identity

Operator
Country
UK
Launch date
2022-12-08
Launch site
AFETR
Launch vehicle
Mass (kg)
RCS (m²)

Purposes: comms

External: N2YO · Heavens-Above · Gunter

§ Orbital elements

Epoch: 2026-05-25T00:17:04.636608Z

Period
108.94 min
Inclination
87.9254°
Eccentricity
0.0001735
Mean motion
13.21824807 rev/d
Perigee alt
1,176.4 km
Apogee alt
1,179.1 km
Semi-major
7,555.9 km
B*
-5.5149e-5
RAAN
248.5982°
Arg perigee
98.9640°
Mean anomaly
261.1691°
Rev number
16,838

§ Raw data

ONEWEB-06151 54676U 22166AL  26145.01185922 -.00000010  00000+0 -55149-4 0  99912 54676  87.9254 248.5982 0001735  98.9640 261.1691 13.21824807168383

JSON: /api/v1/satellites/54676 · /tle

For live sub-satellite position, see the globe view (requires WebGL).

§ Visibility from observer

Set your observer location to see the next 7 days of passes ≥ 10°. The values pass through the URL so the page stays shareable.

No JS? Fill the form by hand. The geolocation button needs JavaScript.